Location: Unspecified
(0.0000°N, 0.0000°E)
Time: 21:36:18
(UTC+00:00)

DMSP F15 (USA 147) - Pass Details

Date: 10 October 2020
Orbit: 829 x 845 km, 99.0° (Epoch: 26 October)

Event Time Altitude Azimuth Distance (km) Brightness Sun altitude
Rises 04:10:41 0° 359° (N) 3,355 8.2 -23.9°
Reaches altitude 10° 04:13:08 10° 352° (N) 2,425 7.4 -23.3°
Enters shadow 04:14:14 16° 346° (NNW) 2,040 7.0 -23.0°
Exits shadow 04:23:58 - 211° (SSW) 2,729 7.6 -20.6°
Sets 04:25:41 0° 207° (SSW) 3,380 8.1 -20.2°
